IBE832 LEZL-GCLP

Flight info

Callsign IBE832
Flight time N/A
Altitude 35000
Route CLANA N857 KORNO UN857 TERTO
Aircraft A321/M-SDE3FGHIRWY/LB1

Departure

Time N/A
Airport Seville Airport (LEZL)

Arrival

Time 2026-04-27 18:15
Airport Gran Canaria Airport (GCLP)
Time Latitude Longitude Altitude Speed Heading
2026-04-27 17:42 29.40681 -13.30876 35021 ft 440 kts 220°
2026-04-27 17:43 29.38215 -13.32948 35024 ft 440 kts 220°
2026-04-27 17:43 29.33276 -13.37089 35037 ft 439 kts 220°
2026-04-27 17:44 29.28341 -13.41232 35035 ft 439 kts 220°
2026-04-27 17:44 29.23406 -13.45364 35037 ft 439 kts 220°
2026-04-27 17:45 29.18468 -13.49493 35040 ft 439 kts 220°
2026-04-27 17:45 29.13662 -13.53726 35021 ft 438 kts 224°
2026-04-27 17:46 29.09092 -13.58301 35015 ft 436 kts 227°
2026-04-27 17:46 29.04581 -13.62932 35021 ft 436 kts 226°
2026-04-27 17:47 29.00013 -13.67497 35027 ft 437 kts 225°
2026-04-27 17:47 28.95397 -13.72022 35031 ft 437 kts 225°
2026-04-27 17:48 28.90785 -13.76536 35032 ft 437 kts 225°
2026-04-27 17:48 28.86185 -13.81060 35040 ft 437 kts 225°
2026-04-27 17:49 28.81583 -13.85589 35025 ft 436 kts 226°
2026-04-27 17:49 28.76982 -13.90106 35028 ft 436 kts 227°
2026-04-27 17:49 28.74688 -13.92357 34831 ft 435 kts 227°
2026-04-27 17:50 28.72417 -13.94582 34596 ft 436 kts 227°
2026-04-27 17:50 28.67812 -13.99077 34132 ft 437 kts 226°
2026-04-27 17:50 28.65500 -14.01334 33885 ft 438 kts 226°
2026-04-27 17:51 28.63181 -14.03597 33577 ft 438 kts 226°
2026-04-27 17:51 28.60861 -14.05864 32685 ft 442 kts 226°
2026-04-27 17:51 28.58521 -14.08153 31925 ft 443 kts 225°
2026-04-27 17:51 28.56204 -14.10417 31436 ft 437 kts 225°
2026-04-27 17:52 28.53907 -14.12657 30873 ft 434 kts 224°
2026-04-27 17:52 28.51625 -14.14880 30322 ft 430 kts 224°
2026-04-27 17:52 28.49358 -14.17085 29702 ft 427 kts 224°
2026-04-27 17:52 28.47872 -14.18530 29355 ft 423 kts 224°
2026-04-27 17:53 28.44907 -14.21409 28656 ft 415 kts 224°
2026-04-27 17:53 28.42724 -14.23525 28136 ft 410 kts 224°
2026-04-27 17:53 28.41296 -14.24910 27788 ft 407 kts 224°
2026-04-27 17:53 28.38440 -14.27682 27091 ft 400 kts 224°
2026-04-27 17:54 28.37042 -14.29037 26755 ft 397 kts 224°
2026-04-27 17:54 28.34956 -14.31056 26266 ft 391 kts 224°
2026-04-27 17:54 28.32901 -14.33045 25778 ft 386 kts 224°
2026-04-27 17:54 28.30871 -14.35011 25302 ft 381 kts 224°
2026-04-27 17:55 28.28867 -14.36953 24856 ft 376 kts 224°
2026-04-27 17:55 28.26888 -14.38871 24403 ft 374 kts 223°
2026-04-27 17:55 28.24916 -14.40780 23971 ft 371 kts 223°
2026-04-27 17:55 28.22954 -14.42678 23517 ft 369 kts 223°
2026-04-27 17:56 28.21004 -14.44561 23050 ft 367 kts 223°
2026-04-27 17:56 28.19092 -14.46405 22648 ft 365 kts 223°
2026-04-27 17:56 28.17162 -14.48264 22235 ft 362 kts 223°
2026-04-27 17:56 28.15249 -14.50109 21820 ft 360 kts 223°
2026-04-27 17:57 28.13347 -14.51944 21408 ft 358 kts 223°
2026-04-27 17:57 28.11460 -14.53765 20992 ft 355 kts 223°
2026-04-27 17:57 28.09584 -14.55574 20574 ft 353 kts 223°
2026-04-27 17:57 28.07722 -14.57371 20145 ft 350 kts 223°
2026-04-27 17:58 28.05869 -14.59158 19723 ft 349 kts 223°
2026-04-27 17:58 28.04023 -14.60934 19297 ft 348 kts 223°
2026-04-27 17:58 28.02184 -14.62699 18854 ft 345 kts 224°
2026-04-27 17:58 28.00357 -14.64456 18437 ft 343 kts 224°
2026-04-27 17:59 27.98683 -14.66347 17979 ft 339 kts 229°
2026-04-27 17:59 27.97059 -14.68271 17555 ft 336 kts 230°
2026-04-27 17:59 27.95449 -14.70179 17146 ft 334 kts 229°
2026-04-27 17:59 27.93851 -14.72068 16731 ft 332 kts 229°
2026-04-27 18:00 27.92277 -14.73922 16335 ft 330 kts 229°
2026-04-27 18:00 27.90693 -14.75787 15937 ft 328 kts 230°
2026-04-27 18:00 27.89123 -14.77638 15542 ft 325 kts 229°
2026-04-27 18:00 27.87563 -14.79482 15147 ft 324 kts 229°
2026-04-27 18:01 27.86011 -14.81317 14754 ft 322 kts 230°
2026-04-27 18:01 27.84471 -14.83137 14349 ft 320 kts 229°
2026-04-27 18:01 27.82931 -14.84954 13955 ft 319 kts 229°
2026-04-27 18:01 27.81404 -14.86755 13546 ft 317 kts 228°
2026-04-27 18:02 27.79878 -14.88553 13139 ft 316 kts 229°
2026-04-27 18:02 27.78357 -14.90343 12743 ft 315 kts 229°
2026-04-27 18:02 27.76841 -14.92125 12403 ft 311 kts 229°
2026-04-27 18:02 27.75375 -14.93846 12272 ft 298 kts 228°
2026-04-27 18:03 27.73964 -14.95501 12144 ft 286 kts 229°
2026-04-27 18:03 27.72610 -14.97090 11992 ft 276 kts 229°
2026-04-27 18:03 27.71290 -14.98643 11727 ft 271 kts 229°
2026-04-27 18:03 27.70024 -15.00205 11480 ft 268 kts 237°
2026-04-27 18:04 27.69098 -15.02003 11238 ft 265 kts 246°
2026-04-27 18:04 27.68294 -15.03868 11012 ft 265 kts 246°
2026-04-27 18:04 27.67483 -15.05734 10757 ft 265 kts 246°
2026-04-27 18:04 27.66682 -15.07571 10417 ft 264 kts 247°
2026-04-27 18:05 27.65860 -15.09451 10046 ft 264 kts 246°
2026-04-27 18:05 27.65049 -15.11304 9650 ft 263 kts 246°
2026-04-27 18:05 27.64280 -15.13136 9274 ft 260 kts 253°
2026-04-27 18:05 27.63939 -15.15106 8912 ft 254 kts 272°
2026-04-27 18:06 27.64168 -15.17046 8560 ft 248 kts 290°
2026-04-27 18:06 27.64787 -15.18855 8211 ft 247 kts 294°
2026-04-27 18:06 27.65421 -15.20653 7866 ft 246 kts 294°
2026-04-27 18:06 27.66046 -15.22439 7516 ft 244 kts 294°
2026-04-27 18:07 27.66667 -15.24212 7169 ft 243 kts 294°
2026-04-27 18:07 27.67289 -15.25982 6828 ft 242 kts 293°
2026-04-27 18:07 27.67907 -15.27743 6418 ft 244 kts 293°
2026-04-27 18:07 27.68528 -15.29519 6102 ft 241 kts 293°
2026-04-27 18:08 27.69147 -15.31284 5674 ft 243 kts 293°
2026-04-27 18:08 27.69768 -15.33059 5283 ft 243 kts 293°
2026-04-27 18:08 27.70387 -15.34831 4934 ft 242 kts 293°
2026-04-27 18:08 27.71001 -15.36593 4585 ft 241 kts 293°
2026-04-27 18:09 27.71613 -15.38348 4238 ft 239 kts 294°
2026-04-27 18:09 27.72220 -15.40093 3898 ft 238 kts 294°
2026-04-27 18:09 27.72854 -15.41802 3572 ft 231 kts 301°
2026-04-27 18:09 27.73858 -15.43158 3248 ft 222 kts 322°
2026-04-27 18:10 27.75150 -15.43974 2969 ft 205 kts 336°
2026-04-27 18:10 27.76425 -15.44633 2871 ft 199 kts 336°
2026-04-27 18:10 27.77643 -15.45040 2871 ft 171 kts 353°
2026-04-27 18:10 27.78769 -15.44971 2781 ft 158 kts
2026-04-27 18:11 27.79762 -15.44580 2609 ft 144 kts 18°
2026-04-27 18:11 27.80678 -15.44179 2426 ft 138 kts 18°
2026-04-27 18:11 27.81571 -15.43786 2252 ft 137 kts 18°
2026-04-27 18:11 27.82443 -15.43402 2071 ft 133 kts 18°
2026-04-27 18:12 27.83302 -15.43023 1895 ft 131 kts 17°
2026-04-27 18:12 27.84160 -15.42642 1706 ft 134 kts 19°
2026-04-27 18:12 27.85027 -15.42259 1522 ft 135 kts 18°
2026-04-27 18:12 27.85891 -15.41869 1377 ft 133 kts 19°
2026-04-27 18:13 27.86758 -15.41495 1126 ft 133 kts 18°
2026-04-27 18:13 27.87609 -15.41102 976 ft 131 kts 19°
2026-04-27 18:13 27.88462 -15.40728 789 ft 131 kts 18°
2026-04-27 18:13 27.89319 -15.40358 620 ft 133 kts 19°
2026-04-27 18:14 27.90181 -15.39975 481 ft 134 kts 19°
2026-04-27 18:14 27.91052 -15.39589 302 ft 132 kts 18°
2026-04-27 18:14 27.91906 -15.39227 122 ft 130 kts 19°
2026-04-27 18:14 27.92692 -15.38881 65 ft 112 kts 20°
2026-04-27 18:15 27.93229 -15.38644 57 ft 59 kts 22°
2026-04-27 18:15 27.93530 -15.38507 57 ft 35 kts 21°
2026-04-27 18:15 27.93693 -15.38433 61 ft 18 kts 17°
2026-04-27 18:15 27.93831 -15.38422 59 ft 22 kts 355°
2026-04-27 18:16 27.93968 -15.38447 70 ft 18 kts 351°
2026-04-27 18:16 27.94052 -15.38514 65 ft 15 kts 294°
2026-04-27 18:16 27.94068 -15.38607 73 ft 9 kts 251°
2026-04-27 18:16 27.94020 -15.38648 82 ft 12 kts 205°
2026-04-27 18:17 27.93945 -15.38682 83 ft 8 kts 200°
2026-04-27 18:17 27.93922 -15.38721 85 ft 5 kts 274°
2026-04-27 18:17 27.93932 -15.38764 86 ft 5 kts 293°
2026-04-27 18:17 27.93938 -15.38779 85 ft 0 kts 292°